[[{"header":{"parameterUnit":"m.s-1","parameterCategory":1,"la1":30.2991,"la2":30.254,"lo1":-89.0895,"lo2":-89.0444,"dy":0.0017,"dx":0.0017,"nx":28,"ny":28,"refTime":"2023-11-16T09:00:00:Z","depth":0,"parameterNumber":2,"parameterNumberName":"U-component_of_WINDS"},"data":[0,0,0,0,0,0,0,0,0,0,0,0,0,0,0,0,0,0,0,0,0,0,0,0,0,0,0,0,0,0,0,0,0,0,0,0,0,0,0,0,0,0,0,0,0,0,0,0,0,0,0,0,0,0,0,0,0,0,-1.4128,-1.4128,0,-1.4173,-1.4173,-1.4174,-1.4137,-1.4135,-1.4134,-1.4132,-1.4183,-1.4186,-1.4189,0,0,0,0,0,0,0,0,0,0,0,0,0,-1.4013,-1.4016,-1.4128,-1.4128,-1.4129,-1.4173,-1.4173,-1.4174,-1.4137,-1.4135,-1.4133,-1.4132,-1.4182,-1.4185,-1.4189,0,0,0,0,0,0,0,0,0,0,0,0,0,-1.4062,-1.4017,-1.4128,-1.4116,-1.4115,-1.4173,-1.4174,-1.4174,-1.4138,-1.4135,-1.4133,-1.4131,-1.4181,-1.4185,-1.4189,-1.4262,0,0,-1.4202,-1.4204,0,0,0,0,0,0,0,0,-1.4059,-1.4066,-1.4117,-1.4117,-1.4116,-1.4147,-1.4152,-1.4204,-1.4138,-1.4129,-1.4132,-1.413,-1.4173,-1.4178,-1.4192,-1.4265,-1.4267,-1.4203,-1.4205,-1.4207,-1.4208,0,0,0,0,0,0,0,-1.4056,-1.4064,-1.4146,-1.4118,-1.4117,-1.4109,-1.4114,-1.4161,-1.4164,-1.413,-1.4127,-1.4133,-1.4173,-1.4188,-1.4193,-1.4268,-1.4202,-1.4206,-1.4209,-1.421,-1.4405,-1.4407,0,0,0,0,0,0,-1.4053,-1.4061,-1.4144,-1.4147,-1.4081,-1.4113,-1.4118,-1.4139,-1.4163,-1.4165,-1.4135,-1.4131,-1.4182,-1.4188,-1.4194,-1.4283,-1.4207,-1.4211,-1.4213,-1.4402,-1.4405,-1.4408,0,0,0,0,0,0,-1.4051,-1.4061,-1.4142,-1.4103,-1.4113,-1.4118,-1.4142,-1.4142,-1.4157,-1.4167,-1.4168,-1.415,-1.418,-1.4188,-1.4246,-1.4284,-1.4213,-1.4217,-1.4399,-1.4403,-1.4407,-1.446,0,0,0,0,0,0,-1.4047,-1.406,-1.4087,-1.4104,-1.4115,-1.4192,-1.4144,-1.4144,-1.4163,-1.4159,-1.4181,-1.4183,-1.4179,-1.424,-1.425,-1.4289,-1.422,-1.4396,-1.4401,-1.4406,-1.4455,-1.4465,-1.4474,0,0,0,0,0,-1.4043,-1.4101,-1.4088,-1.4099,-1.4149,-1.4194,-1.4201,-1.4194,-1.4167,-1.4195,-1.4201,-1.4182,-1.4278,-1.4246,-1.4257,-1.4298,-1.4393,-1.44,-1.4405,-1.4451,-1.4463,-1.4474,0,0,0,0,0,0,-1.4089,-1.4103,-1.4089,-1.4154,-1.4173,-1.4188,-1.4223,-1.4208,-1.4236,-1.4231,-1.4223,-1.4228,-1.4289,-1.4299,-1.4263,-1.4371,-1.4331,-1.434,-1.4362,-1.4374,-1.4384,-1.4381,-1.4223,0,0,0,0,0,-1.4106,-1.4141,-1.4151,-1.4207,-1.4217,-1.4219,-1.4238,-1.4231,-1.4252,-1.426,-1.4271,-1.4293,-1.4328,-1.4351,-1.4384,-1.4455,-1.4461,-1.4489,-1.4499,-1.4506,-1.4515,-1.4555,-1.4568,-1.4428,-1.4428,-1.4428,0,0,-1.4143,-1.4155,-1.4177,-1.4217,-1.4231,-1.4269,-1.4226,-1.4267,-1.4295,-1.4267,-1.4322,-1.4331,-1.4354,-1.442,-1.4449,-1.443,-1.4554,-1.4514,-1.452,-1.4524,-1.4563,-1.4576,-1.4588,-1.4432,-1.4431,-1.443,0,0,-1.423,-1.4241,-1.4289,-1.4304,-1.4326,-1.4326,-1.4338,-1.4355,-1.436,-1.4414,-1.4394,-1.4428,-1.4488,-1.4506,-1.4523,-1.4617,-1.4601,-1.4627,-1.4679,-1.4718,-1.4729,-1.4739,-1.4774,-1.4787,-1.4635,-1.4635,-1.4635,0,-1.4273,-1.4327,-1.4317,-1.436,-1.4378,-1.4352,-1.4402,-1.4417,-1.4449,-1.4464,-1.4441,-1.4516,-1.453,-1.46,-1.4623,-1.4637,-1.4652,-1.4626,-1.4728,-1.4738,-1.4747,-1.4781,-1.4794,-1.4638,-1.4638,-1.4638,-1.4637,0,-1.4381,-1.4419,-1.4455,-1.4486,-1.4508,-1.4554,-1.4552,-1.4576,-1.4567,-1.457,-1.4627,-1.4643,-1.4679,-1.4695,-1.4687,-1.4764,-1.4752,-1.4729,-1.469,-1.4764,-1.4795,-1.4808,-1.4643,-1.4642,-1.4641,-1.464,0,0,-1.4499,-1.4522,-1.4536,-1.455,-1.4571,-1.4601,-1.4647,-1.4681,-1.4703,-1.4725,-1.4765,-1.4816,-1.4795,-1.4814,-1.4808,-1.4842,-1.4918,-1.4815,-1.4816,-1.4836,-1.5006,-1.5025,-1.504,-1.4906,-1.4908,-1.491,-1.5005,0,-1.4588,-1.4665,-1.4657,-1.4732,-1.4768,-1.4744,-1.4784,-1.4802,-1.4807,-1.4839,-1.4844,-1.4881,-1.4849,-1.4861,-1.4894,-1.4902,-1.4952,-1.4894,-1.4945,-1.4947,-1.4942,-1.5056,-1.5076,-1.5165,-1.5017,-1.5019,-1.5021,0,-1.4702,-1.4728,-1.4806,-1.4823,-1.4838,-1.4874,-1.4905,-1.4935,-1.4956,-1.4957,-1.4978,-1.4966,-1.5014,-1.4972,-1.5039,-1.5,-1.502,-1.5027,-1.503,-1.5036,-1.499,-1.5068,-1.5193,-1.5207,-1.504,-1.5038,-1.5037,0,-1.4783,-1.4837,-1.4891,-1.4903,-1.4924,-1.495,-1.496,-1.4978,-1.5,-1.5027,-1.5041,-1.5074,-1.5093,-1.5119,-1.5117,-1.5086,-1.5186,-1.5143,-1.519,-1.519,-1.5214,-1.5213,-1.5346,-1.5223,-1.5223,-1.5222,-1.5222,0,-1.4884,-1.4934,-1.4928,-1.4961,-1.5017,-1.5007,-1.5062,-1.5069,-1.5086,-1.5122,-1.5102,-1.5137,-1.513,-1.5165,-1.5164,-1.522,-1.5229,-1.5232,-1.5232,-1.5235,-1.5235,-1.525,-1.5245,-1.5226,-1.5225,-1.5224,-1.5224,0,-1.4984,-1.4982,-1.504,-1.5054,-1.5059,-1.5099,-1.5112,-1.5145,-1.5147,-1.5193,-1.5203,-1.5207,-1.5247,-1.5247,-1.5293,-1.5292,-1.5362,-1.5353,-1.5355,-1.5354,-1.5401,-1.5398,-1.555,-1.5571,-1.5432,-1.5434,-1.5435,0,-1.505,-1.5088,-1.5106,-1.5128,-1.5139,-1.5175,-1.5196,-1.5188,-1.5211,-1.5238,-1.5268,-1.5306,-1.5336,-1.5402,-1.541,-1.5445,-1.5439,-1.549,-1.5444,-1.5447,-1.5442,-1.5441,-1.5446,-1.55,-1.5501,-1.5502,-1.5503,0,-1.5168,-1.5165,-1.5196,-1.5227,-1.5252,-1.5277,-1.5299,-1.5318,-1.5312,-1.534,-1.538,-1.5403,-1.545,-1.5489,-1.5523,-1.5535,-1.552,-1.5517,-1.553,-1.5536,-1.5536,-1.5539,-1.5382,-1.5514,-1.5513,-1.5512,-1.5512,-1.5511,-1.5255,-1.5288,-1.5305,-1.5341,-1.5356,-1.5377,-1.5409,-1.5415,-1.5447,-1.5484,-1.5477,-1.5523,-1.5544,-1.5588,-1.5603,-1.5639,-1.5622,-1.564,-1.5645,-1.5651,-1.5657,-1.5528,-1.5645,-1.5645,-1.5645,-1.5644,-1.5644,0,-1.5374,-1.5384,-1.5416,-1.5447,-1.5476,-1.5456,-1.548,-1.5505,-1.5545,-1.5565,-1.5595,-1.5642,-1.5679,-1.569,-1.5726,-1.5754,-1.5748,-1.5764,-1.5763,-1.5767,-1.5669,-1.5655,-1.5769,-1.5769,-1.5769,-1.5768,-1.5768,-1.5768,-1.5439,-1.5494,-1.5493,-1.5556,-1.5566,-1.5609,-1.5625,-1.5645,-1.5661,-1.5714,-1.5744,-1.575,-1.5767,-1.5805,-1.5839,-1.5842,-1.5857,-1.5877,-1.5877,-1.5786,-1.5774,-1.5762,-1.5749,-1.588,-1.588,-1.5972,-1.5972,-1.5973]},{"header":{"parameterUnit":"m.s-1","parameterCategory":1,"la1":30.2991,"la2":30.254,"lo1":-89.0895,"lo2":-89.0444,"dy":0.0017,"dx":0.0017,"nx":28,"ny":28,"refTime":"2023-11-16T09:00:00:Z","depth":0,"parameterNumber":3,"parameterNumberName":"V-component_of_WINDS"},"data":[0,0,0,0,0,0,0,0,0,0,0,0,0,0,0,0,0,0,0,0,0,0,0,0,0,0,0,0,0,0,0,0,0,0,0,0,0,0,0,0,0,0,0,0,0,0,0,0,0,0,0,0,0,0,0,0,0,0,-3.3029,-3.3028,0,-3.2972,-3.2971,-3.2971,-3.2881,-3.2879,-3.2877,-3.2876,-3.2818,-3.2818,-3.2818,0,0,0,0,0,0,0,0,0,0,0,0,0,-3.306,-3.306,-3.3029,-3.3028,-3.3028,-3.2972,-3.2971,-3.2971,-3.2881,-3.2879,-3.2877,-3.2875,-3.2818,-3.2818,-3.2818,0,0,0,0,0,0,0,0,0,0,0,0,0,-3.303,-3.306,-3.3029,-3.2976,-3.2971,-3.2972,-3.2971,-3.297,-3.2881,-3.2879,-3.2876,-3.2874,-3.2818,-3.2818,-3.2818,-3.2867,0,0,-3.2818,-3.2818,0,0,0,0,0,0,0,0,-3.3032,-3.3029,-3.2985,-3.298,-3.2974,-3.2931,-3.2961,-3.2936,-3.2882,-3.2915,-3.2876,-3.2873,-3.2858,-3.2854,-3.2849,-3.2864,-3.2862,-3.2818,-3.2818,-3.2818,-3.2818,0,0,0,0,0,0,0,-3.3034,-3.3031,-3.3007,-3.2984,-3.2978,-3.2955,-3.2948,-3.2956,-3.2901,-3.2912,-3.2906,-3.29,-3.2854,-3.2849,-3.2847,-3.2861,-3.2818,-3.2818,-3.2818,-3.2818,-3.2912,-3.2914,0,0,0,0,0,0,-3.3044,-3.3033,-3.3008,-3.3005,-3.2997,-3.2957,-3.2949,-3.2947,-3.2901,-3.2891,-3.2902,-3.2896,-3.285,-3.2847,-3.2845,-3.2898,-3.2818,-3.2818,-3.2818,-3.291,-3.2913,-3.2915,0,0,0,0,0,0,-3.3045,-3.3042,-3.3011,-3.3017,-3.3011,-3.2959,-3.2958,-3.2947,-3.2942,-3.2893,-3.2883,-3.2907,-3.2848,-3.2845,-3.2862,-3.2895,-3.2818,-3.2818,-3.2907,-3.291,-3.2914,-3.3005,0,0,0,0,0,0,-3.3046,-3.3043,-3.3061,-3.3018,-3.3011,-3.3029,-3.296,-3.2948,-3.2942,-3.2934,-3.2895,-3.2886,-3.2846,-3.2862,-3.2862,-3.2893,-3.2818,-3.2903,-3.2908,-3.2913,-3.2999,-3.3012,-3.3023,0,0,0,0,0,-3.3047,-3.309,-3.3063,-3.306,-3.3033,-3.3031,-3.3027,-3.298,-3.2945,-3.2963,-3.2931,-3.2887,-3.2891,-3.2865,-3.2863,-3.2895,-3.2901,-3.2907,-3.2912,-3.2994,-3.3009,-3.3022,0,0,0,0,0,0,-3.3138,-3.3083,-3.3052,-3.3082,-3.3062,-3.3016,-3.3037,-3.2998,-3.2988,-3.298,-3.2922,-3.2914,-3.2939,-3.2919,-3.289,-3.294,-3.2889,-3.2895,-3.2952,-3.2966,-3.2978,-3.2982,-3.2818,0,0,0,0,0,-3.3162,-3.3165,-3.3116,-3.3147,-3.3139,-3.309,-3.3087,-3.3053,-3.303,-3.3021,-3.299,-3.297,-3.2966,-3.2965,-3.2959,-3.2996,-3.2986,-3.3017,-3.3029,-3.3039,-3.3044,-3.3062,-3.3075,-3.2934,-3.2934,-3.2934,0,0,-3.321,-3.318,-3.3186,-3.3165,-3.3145,-3.315,-3.3083,-3.3091,-3.3094,-3.3022,-3.3036,-3.3013,-3.2986,-3.3014,-3.3024,-3.2997,-3.3081,-3.3046,-3.3054,-3.3054,-3.3069,-3.3082,-3.3094,-3.2938,-3.2937,-3.2936,0,0,-3.3301,-3.3279,-3.3301,-3.3283,-3.3254,-3.3221,-3.3227,-3.3187,-3.3169,-3.3182,-3.3128,-3.313,-3.3126,-3.3108,-3.3099,-3.3183,-3.3142,-3.3183,-3.3244,-3.3261,-3.3272,-3.3282,-3.3311,-3.3322,-3.3188,-3.3189,-3.3189,0,-3.3364,-3.3369,-3.3318,-3.3329,-3.3321,-3.3256,-3.3279,-3.3263,-3.3235,-3.323,-3.3201,-3.3193,-3.3171,-3.3192,-3.3213,-3.3208,-3.3212,-3.3187,-3.3275,-3.3284,-3.3292,-3.3319,-3.3331,-3.3194,-3.3193,-3.3193,-3.3192,0,-3.3449,-3.3453,-3.3475,-3.3448,-3.3442,-3.346,-3.3411,-3.3411,-3.3378,-3.3348,-3.3362,-3.3332,-3.3319,-3.3322,-3.3289,-3.3339,-3.3323,-3.3286,-3.3234,-3.3311,-3.3336,-3.3346,-3.3201,-3.3199,-3.3198,-3.3196,0,0,-3.3595,-3.3539,-3.3548,-3.3535,-3.3498,-3.35,-3.3514,-3.3501,-3.3502,-3.3484,-3.3494,-3.3491,-3.3456,-3.3446,-3.341,-3.3426,-3.3493,-3.3386,-3.3384,-3.3406,-3.3545,-3.3574,-3.3587,-3.3466,-3.3468,-3.3469,-3.3547,0,-3.3677,-3.3697,-3.3652,-3.3683,-3.3686,-3.3625,-3.3636,-3.3615,-3.3588,-3.3586,-3.3556,-3.3554,-3.3508,-3.3501,-3.3514,-3.3482,-3.352,-3.3476,-3.3474,-3.3474,-3.3482,-3.36,-3.363,-3.3705,-3.3557,-3.3558,-3.356,0,-3.3776,-3.3763,-3.3795,-3.3756,-3.3755,-3.3767,-3.3751,-3.375,-3.3725,-3.3703,-3.3692,-3.365,-3.3661,-3.3611,-3.3624,-3.3596,-3.3592,-3.3576,-3.3578,-3.3576,-3.3522,-3.36,-3.3728,-3.3739,-3.3574,-3.3573,-3.3572,0,-3.3879,-3.3869,-3.3886,-3.3877,-3.3832,-3.3842,-3.3824,-3.3796,-3.379,-3.3776,-3.3772,-3.376,-3.3753,-3.3744,-3.37,-3.3668,-3.3718,-3.3665,-3.3701,-3.3702,-3.3714,-3.3713,-3.3843,-3.3713,-3.3712,-3.3712,-3.3712,0,-3.3975,-3.3997,-3.3932,-3.3943,-3.3965,-3.3912,-3.3936,-3.3911,-3.3887,-3.3892,-3.3838,-3.3844,-3.3785,-3.3784,-3.375,-3.3766,-3.3763,-3.3746,-3.3737,-3.3751,-3.3753,-3.3747,-3.3741,-3.3715,-3.3715,-3.3714,-3.3713,0,-3.4093,-3.4051,-3.4065,-3.4022,-3.4011,-3.403,-3.3992,-3.4,-3.3969,-3.3976,-3.3974,-3.3926,-3.3922,-3.3877,-3.3864,-3.384,-3.3869,-3.385,-3.3878,-3.3872,-3.3909,-3.3906,-3.4039,-3.4053,-3.3915,-3.3916,-3.3918,0,-3.4157,-3.4173,-3.4131,-3.413,-3.4114,-3.4114,-3.4108,-3.4057,-3.4053,-3.4025,-3.4036,-3.4028,-3.4019,-3.4015,-3.3978,-3.3968,-3.3947,-3.3995,-3.3945,-3.3959,-3.3947,-3.3947,-3.3948,-3.4005,-3.4007,-3.4008,-3.4009,0,-3.4276,-3.4254,-3.4248,-3.4234,-3.4229,-3.4216,-3.42,-3.4202,-3.4146,-3.4144,-3.4139,-3.4132,-3.4118,-3.411,-3.4093,-3.4073,-3.4032,-3.4025,-3.4033,-3.4047,-3.4062,-3.4054,-3.3906,-3.4022,-3.4021,-3.402,-3.4019,-3.4019,-3.4368,-3.4379,-3.4351,-3.4346,-3.4328,-3.4314,-3.4319,-3.4289,-3.4284,-3.4268,-3.4238,-3.4238,-3.4211,-3.4184,-3.4168,-3.4167,-3.4142,-3.4153,-3.4156,-3.4159,-3.4166,-3.4063,-3.4163,-3.4163,-3.4162,-3.4162,-3.4162,0,-3.4483,-3.4462,-3.4458,-3.4437,-3.4433,-3.4394,-3.4374,-3.4373,-3.4374,-3.4352,-3.4344,-3.4338,-3.433,-3.4293,-3.4281,-3.4287,-3.4268,-3.4286,-3.4284,-3.4281,-3.4189,-3.4184,-3.4301,-3.4301,-3.4301,-3.4301,-3.4301,-3.4301,-3.4543,-3.4558,-3.4533,-3.4539,-3.4517,-3.4517,-3.4509,-3.4495,-3.4478,-3.4474,-3.4467,-3.4443,-3.4415,-3.44,-3.4391,-3.438,-3.4378,-3.4402,-3.4385,-3.4301,-3.4287,-3.4274,-3.4269,-3.4402,-3.4402,-3.4476,-3.4477,-3.4477]}]]